[[{"header":{"parameterUnit":"m.s-1","parameterCategory":1,"la1":30.2991,"la2":30.254,"lo1":-89.0895,"lo2":-89.0444,"dy":0.0017,"dx":0.0017,"nx":28,"ny":28,"refTime":"2025-08-25T03:00:00:Z","depth":0,"parameterNumber":2,"parameterNumberName":"U-component_of_WINDS"},"data":[0,0,0,0,0,0,0,0,0,0,0,0,0,0,0,0,0,0,0,0,0,0,0,0,0,0,0,0,0,0,0,0,0,0,0,0,0,0,0,0,0,0,0,0,0,0,0,0,0,0,0,0,0,0,0,0,0,0,0.1933,0.1934,0,0.2008,0.2009,0.201,0.204,0.204,0.204,0.204,0.212,0.2122,0.2125,0,0,0,0,0,0,0,0,0,0,0,0,0,0.1816,0.1818,0.1933,0.1934,0.1935,0.2008,0.2009,0.201,0.204,0.204,0.204,0.204,0.2119,0.2122,0.2125,0,0,0,0,0,0,0,0,0,0,0,0,0,0.1877,0.1818,0.1933,0.1958,0.1961,0.2008,0.2009,0.2011,0.204,0.204,0.204,0.204,0.2118,0.2122,0.2125,0.2153,0,0,0.2136,0.2137,0,0,0,0,0,0,0,0,0.1873,0.1881,0.1954,0.1957,0.196,0.2015,0.1998,0.2058,0.204,0.2011,0.204,0.2039,0.2085,0.2092,0.2106,0.2156,0.216,0.2136,0.2138,0.214,0.2141,0,0,0,0,0,0,0,0.1869,0.1878,0.1963,0.1955,0.1959,0.1967,0.1975,0.2009,0.2049,0.2013,0.2015,0.2024,0.2087,0.2103,0.2109,0.2161,0.2136,0.2139,0.2141,0.2143,0.2236,0.2237,0,0,0,0,0,0,0.186,0.1874,0.196,0.1965,0.1915,0.1969,0.1978,0.1997,0.2048,0.2056,0.2024,0.2025,0.2097,0.2104,0.2112,0.2146,0.214,0.2143,0.2145,0.2236,0.2236,0.2237,0,0,0,0,0,0,0.1857,0.1867,0.1957,0.192,0.1932,0.1971,0.1993,0.1999,0.2015,0.2057,0.2064,0.2033,0.2097,0.2107,0.2142,0.215,0.2145,0.2148,0.2235,0.2236,0.2237,0.2217,0,0,0,0,0,0,0.1854,0.1866,0.1877,0.192,0.1934,0.1986,0.1993,0.2001,0.2021,0.2023,0.2067,0.2074,0.2098,0.2136,0.2145,0.2154,0.215,0.2235,0.2236,0.2236,0.2217,0.2217,0.2216,0,0,0,0,0,0.185,0.1869,0.1877,0.1888,0.1948,0.1986,0.1994,0.202,0.2021,0.2032,0.2059,0.2073,0.2147,0.214,0.215,0.216,0.2234,0.2235,0.2236,0.2217,0.2217,0.2216,0,0,0,0,0,0,0.1827,0.1875,0.1885,0.1919,0.1948,0.1991,0.2006,0.2019,0.205,0.205,0.2082,0.2092,0.2124,0.2146,0.2137,0.2189,0.2192,0.2195,0.2174,0.2174,0.2174,0.2168,0.2153,0,0,0,0,0,0.1826,0.1852,0.1893,0.1919,0.1933,0.1967,0.1985,0.2002,0.2034,0.2047,0.2076,0.2107,0.2137,0.2157,0.2187,0.222,0.223,0.2232,0.2232,0.2231,0.2234,0.2252,0.2253,0.224,0.224,0.224,0,0,0.1824,0.1854,0.1869,0.1915,0.194,0.1967,0.1977,0.2006,0.2026,0.2051,0.2086,0.2108,0.2145,0.2179,0.2195,0.2198,0.2239,0.2232,0.2232,0.2235,0.2253,0.2254,0.2255,0.224,0.224,0.224,0,0,0.1834,0.1859,0.1883,0.1907,0.1944,0.1966,0.1972,0.2013,0.2028,0.2063,0.2082,0.2107,0.2159,0.2184,0.2203,0.2221,0.2235,0.223,0.2229,0.2247,0.2248,0.2249,0.2255,0.2257,0.2232,0.2232,0.2232,0,0.1828,0.1868,0.1894,0.1921,0.1941,0.1964,0.1988,0.2011,0.2056,0.2069,0.2071,0.2135,0.2162,0.2202,0.2206,0.2221,0.2228,0.2226,0.2245,0.2247,0.2248,0.2255,0.2257,0.2232,0.2232,0.2232,0.2232,0,0.1858,0.1886,0.1901,0.1943,0.1964,0.199,0.202,0.2039,0.2054,0.2076,0.211,0.2143,0.2179,0.219,0.2206,0.2231,0.2232,0.2239,0.2243,0.2248,0.2255,0.2257,0.223,0.2231,0.2231,0.2231,0,0,0.1858,0.1912,0.1917,0.1936,0.1977,0.1999,0.2026,0.2061,0.2076,0.2106,0.2129,0.2171,0.2178,0.22,0.2218,0.2233,0.2245,0.2239,0.224,0.2239,0.2275,0.227,0.2272,0.2254,0.2255,0.2255,0.2272,0,0.1873,0.1921,0.1944,0.1982,0.2008,0.2029,0.2052,0.208,0.2101,0.2126,0.2149,0.2179,0.2185,0.2199,0.2214,0.224,0.2253,0.2239,0.2276,0.2277,0.2267,0.2275,0.227,0.2285,0.2275,0.2275,0.2276,0,0.1899,0.1927,0.1967,0.2004,0.2016,0.2036,0.2069,0.2093,0.2125,0.2139,0.2163,0.218,0.2209,0.221,0.2249,0.224,0.2256,0.2271,0.2272,0.2277,0.2277,0.2281,0.229,0.2292,0.228,0.2279,0.2279,0,0.1894,0.1942,0.1972,0.1987,0.2032,0.2045,0.2065,0.2096,0.2115,0.2144,0.2157,0.2189,0.2207,0.2232,0.2258,0.2256,0.2295,0.2298,0.2307,0.2307,0.2315,0.2315,0.2328,0.2325,0.2325,0.2325,0.2325,0,0.1909,0.1933,0.197,0.1989,0.2015,0.2042,0.2068,0.2089,0.2116,0.2139,0.216,0.2181,0.2214,0.2239,0.2259,0.2289,0.2297,0.2309,0.2314,0.2308,0.2306,0.2319,0.2319,0.2326,0.2326,0.2326,0.2325,0,0.1909,0.1935,0.1969,0.2007,0.2018,0.2036,0.2069,0.2088,0.2109,0.2137,0.2146,0.2179,0.221,0.2238,0.2279,0.2292,0.2323,0.2329,0.2311,0.2314,0.2322,0.2321,0.2345,0.2349,0.2343,0.2343,0.2343,0,0.1917,0.1935,0.1976,0.1992,0.201,0.2037,0.2056,0.2082,0.2102,0.2138,0.2153,0.2184,0.2211,0.2259,0.2288,0.2319,0.2327,0.2332,0.2332,0.2324,0.2327,0.2325,0.2327,0.2332,0.2332,0.2332,0.2332,0,0.1929,0.194,0.1967,0.1997,0.2019,0.2045,0.2071,0.2084,0.2115,0.2136,0.2167,0.2187,0.2228,0.226,0.2294,0.2314,0.2328,0.2332,0.2336,0.2329,0.2318,0.2324,0.2311,0.2332,0.2332,0.2332,0.2332,0.2332,0.1933,0.195,0.1981,0.2009,0.2031,0.2055,0.2074,0.2097,0.2123,0.2158,0.2172,0.2204,0.2234,0.2281,0.2301,0.2326,0.2329,0.2335,0.2337,0.2338,0.2336,0.2314,0.2333,0.2333,0.2333,0.2333,0.2333,0,0.1946,0.1966,0.1992,0.2028,0.205,0.206,0.2089,0.2107,0.2135,0.2162,0.2187,0.2222,0.2252,0.2282,0.2314,0.2328,0.2336,0.2336,0.2335,0.234,0.2332,0.2325,0.2329,0.2329,0.2329,0.2329,0.2329,0.2329,0.1955,0.1984,0.1999,0.2039,0.206,0.209,0.2106,0.2128,0.2149,0.2187,0.2212,0.2231,0.2259,0.2293,0.2321,0.2329,0.234,0.2338,0.2348,0.234,0.234,0.234,0.2334,0.234,0.234,0.2353,0.2354,0.2354]},{"header":{"parameterUnit":"m.s-1","parameterCategory":1,"la1":30.2991,"la2":30.254,"lo1":-89.0895,"lo2":-89.0444,"dy":0.0017,"dx":0.0017,"nx":28,"ny":28,"refTime":"2025-08-25T03:00:00:Z","depth":0,"parameterNumber":3,"parameterNumberName":"V-component_of_WINDS"},"data":[0,0,0,0,0,0,0,0,0,0,0,0,0,0,0,0,0,0,0,0,0,0,0,0,0,0,0,0,0,0,0,0,0,0,0,0,0,0,0,0,0,0,0,0,0,0,0,0,0,0,0,0,0,0,0,0,0,0,4.056,4.0562,0,4.068,4.0682,4.0683,4.0704,4.0703,4.0702,4.0701,4.0819,4.0823,4.0827,0,0,0,0,0,0,0,0,0,0,0,0,0,4.0341,4.0345,4.056,4.0562,4.0563,4.068,4.0682,4.0683,4.0704,4.0703,4.0701,4.07,4.0818,4.0822,4.0827,0,0,0,0,0,0,0,0,0,0,0,0,0,4.0446,4.0346,4.056,4.0588,4.0591,4.068,4.0682,4.0684,4.0704,4.0703,4.0701,4.07,4.0816,4.0822,4.0828,4.0896,0,0,4.0847,4.0849,0,0,0,0,0,0,0,0,4.044,4.0454,4.0582,4.0586,4.059,4.0676,4.0648,4.0755,4.0705,4.0661,4.0701,4.0699,4.0772,4.0782,4.0807,4.0901,4.0906,4.0847,4.0851,4.0854,4.0855,0,0,0,0,0,0,0,4.0433,4.0449,4.0608,4.0584,4.0589,4.0592,4.0605,4.0668,4.0723,4.0665,4.0667,4.0681,4.0774,4.0801,4.081,4.0908,4.0847,4.0852,4.0856,4.0859,4.1057,4.1059,0,0,0,0,0,0,4.0422,4.0443,4.0604,4.0611,4.051,4.0597,4.0612,4.065,4.0723,4.0733,4.0682,4.0681,4.0792,4.0803,4.0815,4.0895,4.0853,4.0859,4.0863,4.1055,4.1057,4.1059,0,0,0,0,0,0,4.0417,4.0436,4.0599,4.0528,4.0549,4.0602,4.0645,4.0653,4.068,4.0736,4.0745,4.07,4.0791,4.0806,4.0874,4.0899,4.0862,4.0868,4.1054,4.1056,4.1058,4.1058,0,0,0,0,0,0,4.041,4.0434,4.0462,4.0528,4.0552,4.0659,4.0646,4.0656,4.0691,4.0692,4.0756,4.0765,4.0791,4.0865,4.088,4.0907,4.0872,4.1051,4.1055,4.1057,4.1056,4.106,4.1063,0,0,0,0,0,4.0403,4.0458,4.0464,4.0483,4.0589,4.0661,4.0674,4.0705,4.0693,4.0721,4.0755,4.0763,4.0894,4.0872,4.0889,4.0918,4.105,4.1054,4.1057,4.1054,4.1059,4.1063,0,0,0,0,0,0,4.0393,4.0467,4.0475,4.0553,4.06,4.0664,4.07,4.071,4.0761,4.0759,4.0793,4.0807,4.0872,4.0902,4.0876,4.0984,4.0971,4.0978,4.0962,4.0968,4.0971,4.0962,4.0877,0,0,0,0,0,4.04,4.0454,4.0515,4.0578,4.0601,4.0646,4.0679,4.0698,4.0748,4.0767,4.0808,4.0854,4.0905,4.0938,4.0989,4.106,4.1072,4.1088,4.1092,4.1095,4.11,4.1135,4.1142,4.1071,4.1071,4.1071,0,0,4.0415,4.0462,4.0494,4.0577,4.0616,4.0668,4.0663,4.072,4.0757,4.0776,4.0842,4.0872,4.0926,4.0995,4.1027,4.1022,4.1122,4.1099,4.1101,4.1105,4.1139,4.1146,4.1152,4.1073,4.1073,4.1073,0,0,4.0468,4.0511,4.0566,4.0605,4.0664,4.0693,4.0706,4.0767,4.0788,4.0856,4.0869,4.0913,4.1002,4.1039,4.1069,4.1131,4.1137,4.1146,4.1165,4.1199,4.1204,4.1209,4.1228,4.1235,4.1151,4.1151,4.1152,0,4.0479,4.056,4.0593,4.0648,4.0682,4.0701,4.0754,4.079,4.0862,4.0883,4.0877,4.0986,4.1024,4.1099,4.1113,4.1139,4.1151,4.1139,4.1201,4.1207,4.1212,4.123,4.1237,4.1152,4.1152,4.1152,4.1152,0,4.0568,4.0623,4.066,4.0729,4.0767,4.0821,4.0859,4.0894,4.0908,4.0937,4.1002,4.1048,4.1106,4.1125,4.1141,4.1201,4.1196,4.1195,4.1182,4.1218,4.1236,4.1243,4.1153,4.1152,4.1152,4.1152,0,0,4.062,4.0704,4.0716,4.0746,4.081,4.0852,4.0905,4.0963,4.0989,4.1037,4.108,4.1153,4.1151,4.1185,4.1204,4.1234,4.1275,4.1229,4.1231,4.1233,4.134,4.1338,4.1346,4.128,4.1282,4.1283,4.1334,0,4.0678,4.0774,4.0803,4.0883,4.0932,4.0949,4.0994,4.1036,4.1064,4.1107,4.1136,4.1186,4.1182,4.1202,4.1232,4.1264,4.1296,4.1261,4.1317,4.1318,4.1301,4.1356,4.1355,4.1401,4.1341,4.1343,4.1343,0,4.0759,4.0808,4.0892,4.0946,4.0968,4.1009,4.1061,4.1104,4.115,4.1167,4.1204,4.1219,4.1271,4.1256,4.1325,4.13,4.1324,4.1343,4.1345,4.135,4.1332,4.1359,4.1417,4.1423,4.1355,4.1354,4.1353,0,4.0783,4.087,4.0931,4.0956,4.1022,4.1049,4.1077,4.1123,4.1154,4.12,4.1219,4.127,4.1297,4.1334,4.1361,4.1348,4.1427,4.1415,4.144,4.1439,4.1455,4.1453,4.1515,4.1474,4.1474,4.1474,4.1474,0,4.0843,4.0893,4.0942,4.0979,4.1034,4.1065,4.1118,4.1147,4.1187,4.1227,4.1245,4.1282,4.1318,4.1358,4.138,4.1432,4.1445,4.1457,4.1462,4.1455,4.1453,4.147,4.1466,4.1476,4.1476,4.1475,4.1475,0,4.0879,4.0915,4.0981,4.1037,4.1052,4.109,4.1137,4.1171,4.1198,4.1249,4.1262,4.1304,4.1352,4.1384,4.1446,4.146,4.1516,4.1521,4.15,4.1502,4.1524,4.152,4.1597,4.1608,4.1562,4.1563,4.1563,0,4.0914,4.0953,4.1013,4.1041,4.107,4.1117,4.1148,4.1179,4.1211,4.1265,4.1292,4.1342,4.1384,4.146,4.1494,4.154,4.1545,4.1568,4.1552,4.1542,4.1541,4.1538,4.154,4.157,4.1571,4.1571,4.1571,0,4.0971,4.0985,4.1031,4.1082,4.1119,4.116,4.1201,4.1223,4.1261,4.1295,4.1345,4.1377,4.144,4.1487,4.1536,4.1563,4.1572,4.1576,4.1584,4.1576,4.1561,4.1566,4.1505,4.1574,4.1574,4.1574,4.1574,4.1573,4.1005,4.1039,4.1085,4.1134,4.1168,4.1205,4.124,4.127,4.1313,4.1367,4.1382,4.1433,4.1475,4.1542,4.1569,4.1608,4.1605,4.1617,4.1619,4.1621,4.162,4.1556,4.1617,4.1617,4.1617,4.1617,4.1617,0,4.106,4.109,4.1135,4.1191,4.1229,4.1236,4.1281,4.1311,4.1356,4.1395,4.1435,4.1491,4.1536,4.1573,4.162,4.1643,4.1648,4.1654,4.1651,4.1656,4.1621,4.1609,4.1649,4.1649,4.1649,4.1649,4.1649,4.1649,4.1092,4.1148,4.1168,4.1239,4.1269,4.132,4.1344,4.1377,4.1408,4.147,4.1508,4.1532,4.1569,4.1618,4.1659,4.1668,4.1683,4.1687,4.1697,4.1663,4.1659,4.1656,4.1644,4.1691,4.1691,4.1729,4.1729,4.173]}]]